Weather in Partizansk

Russia / Krasnoyarsk Krai     58°41′06″N   94°14′14″E
temp.,
°C
wind,
m/s
gust,
m/s
humid.,
%
clouds,
%
prec.,
mm/h
press.,
hPa
HPBL,
m
29 july, thu
thu2901:00+12nnw1596100 2.2 1008178
04:00+11wsw1198100 2.1 100935
07:00+11nw3998100 2.9 1008372
10:00+11nw3996100 0.6 1008438
13:00+12wnw2595100 0.9 1009350
16:00+12nw3691100 0.0 1009495
19:00+12wnw2595100 0.6 1010357
22:00+10w229696 0.0 101042
30 july, fri
fri3001:00+9wnw1195100 0.0 101111
04:00+9wnw1194100 0.0 101110
07:00+12wnw128713 0.0 1011105
10:00+19nnw234687 0.0 10111475
13:00+21nnw2237100 0.0 10102015
16:00+22nnw2135100 0.0 10092203
19:00+19w245142 0.0 1010124
22:00+12w1169100 0.0 101110
31 july, sat
sat3101:00+12w1169100 0.0 101210
04:00+12wnw117279 0.0 101210
07:00+15w126790 0.0 1014102
10:00+17wnw1458100 0.0 1014427
13:00+17wnw2663100 0.1 1014219
16:00+20w455095 0.0 10141140
19:00+19sw245695 0.0 1015294
22:00+15w006067 0.0 101511
1 august, sun
sun101:00+11ene00700 0.0 101510
04:00+10ese11742 0.0 101510
07:00+15se1164100 0.0 101495
10:00+20sse3448100 0.0 1013922
13:00+22s3339100 0.0 10122230
16:00+20s2450100 0.0 1011365
19:00+18se2263100 0.0 101129
22:00+14wnw118296 0.1 101227
2 august, mon
mon201:00+14e1181100 0.1 101111
04:00+12e008896 0.0 101010
07:00+14ese118467 0.2 101026
10:00+15ssw2382100 0.4 1009282
13:00+22sw46398 0.6 10072438
16:00+23wsw56348 0.0 10072644
19:00+20wsw364561 0.0 1008792
22:00+13wnw116575 0.0 100911